Location: Rounton
(54.4000°N, 1.3500°W)
Time: 14:53:17
(UTC+00:00)

Transit 2A - Pass Details

Date: 02 December 2021
Orbit: 591 x 967 km, 66.7° (Epoch: 21 January)

Event Time Altitude Azimuth Distance (km) Brightness Sun altitude
Rises 06:42:00 0° 310° (NW) 3,604 - -11.2°
Reaches altitude 10° 06:44:45 10° 319° (NW) 2,687 - -10.8°
Exits shadow 06:44:48 10° 319° (NW) 2,672 8.2 -10.8°
Maximum altitude 06:50:36 37° 25° (NNE) 1,474 7.5 -10.0°
Drops below altitude 10° 06:56:27 10° 92° (E) 2,694 10.0 -9.3°
Sets 06:59:12 0° 100° (E) 3,614 11.3 -8.9°
